Year,Month,Day,Hour,Minute,Value (Times are PST for temperature in C)
2012,04,22,00,00,8.70
2012,04,22,00,01,8.70
2012,04,22,00,02,8.70
2012,04,22,00,03,8.70
2012,04,22,00,04,8.70
2012,04,22,00,05,8.70
2012,04,22,00,06,8.60
2012,04,22,00,07,8.60
2012,04,22,00,08,8.60
2012,04,22,00,09,8.60
2012,04,22,00,10,8.60
2012,04,22,00,11,8.60
2012,04,22,00,12,8.60
2012,04,22,00,13,8.50
2012,04,22,00,14,8.50
2012,04,22,00,15,8.50
2012,04,22,00,16,8.50
2012,04,22,00,17,8.40
2012,04,22,00,18,8.50
2012,04,22,00,19,8.40
2012,04,22,00,20,8.50
2012,04,22,00,21,8.40
2012,04,22,00,22,8.40
2012,04,22,00,23,8.40
2012,04,22,00,24,8.40
2012,04,22,00,25,8.40
2012,04,22,00,26,8.40
2012,04,22,00,27,8.40
2012,04,22,00,28,8.40
2012,04,22,00,29,8.30
2012,04,22,00,30,8.30
2012,04,22,00,31,8.30
2012,04,22,00,32,8.30
2012,04,22,00,33,8.30
2012,04,22,00,34,8.30
2012,04,22,00,35,8.20
2012,04,22,00,36,8.20
2012,04,22,00,37,8.20
2012,04,22,00,38,8.20
2012,04,22,00,39,8.20
2012,04,22,00,40,8.20
2012,04,22,00,41,8.20
2012,04,22,00,42,8.20
2012,04,22,00,43,8.20
2012,04,22,00,44,8.10
2012,04,22,00,45,8.10
2012,04,22,00,46,8.10
2012,04,22,00,47,8.10
2012,04,22,00,48,8.10
2012,04,22,00,49,8.10
2012,04,22,00,50,8.10
2012,04,22,00,51,8.00
2012,04,22,00,52,8.00
2012,04,22,00,53,8.00
2012,04,22,00,54,8.00
2012,04,22,00,55,8.00
2012,04,22,00,56,7.90
2012,04,22,00,57,7.90
2012,04,22,00,58,7.90
2012,04,22,00,59,7.90
2012,04,22,01,00,7.90
2012,04,22,01,01,7.90
2012,04,22,01,02,7.80
2012,04,22,01,03,7.80
2012,04,22,01,04,7.80
2012,04,22,01,05,7.80
2012,04,22,01,06,7.80
2012,04,22,01,07,7.80
2012,04,22,01,08,7.80
2012,04,22,01,09,7.70
2012,04,22,01,10,7.70
2012,04,22,01,11,7.70
2012,04,22,01,12,7.70
2012,04,22,01,13,7.70
2012,04,22,01,14,7.70
2012,04,22,01,15,7.70
2012,04,22,01,16,7.60
2012,04,22,01,17,7.60
2012,04,22,01,18,7.60
2012,04,22,01,19,7.60
2012,04,22,01,20,7.60
2012,04,22,01,21,7.60
2012,04,22,01,22,7.60
2012,04,22,01,23,7.50
2012,04,22,01,24,7.50
2012,04,22,01,25,7.50
2012,04,22,01,26,7.50
2012,04,22,01,27,7.50
2012,04,22,01,28,7.50
2012,04,22,01,29,7.50
2012,04,22,01,30,7.50
2012,04,22,01,31,7.50
2012,04,22,01,32,7.50
2012,04,22,01,33,7.50
2012,04,22,01,34,7.50
2012,04,22,01,35,7.50
2012,04,22,01,36,7.50
2012,04,22,01,37,7.40
2012,04,22,01,38,7.40
2012,04,22,01,39,7.40
2012,04,22,01,40,7.40
2012,04,22,01,41,7.40
2012,04,22,01,42,7.40
2012,04,22,01,43,7.40
2012,04,22,01,44,7.40
2012,04,22,01,45,7.40
2012,04,22,01,46,7.40
2012,04,22,01,47,7.40
2012,04,22,01,48,7.40
2012,04,22,01,49,7.40
2012,04,22,01,50,7.40
2012,04,22,01,51,7.40
2012,04,22,01,52,7.40
2012,04,22,01,53,7.40
2012,04,22,01,54,7.40
2012,04,22,01,55,7.40
2012,04,22,01,56,7.40
2012,04,22,01,57,7.40
2012,04,22,01,58,7.40
2012,04,22,01,59,7.40
2012,04,22,02,00,7.40
2012,04,22,02,01,7.40
2012,04,22,02,02,7.40
2012,04,22,02,03,7.40
2012,04,22,02,04,7.40
2012,04,22,02,05,7.40
2012,04,22,02,06,7.40
2012,04,22,02,07,7.40
2012,04,22,02,08,7.40
2012,04,22,02,09,7.40
2012,04,22,02,10,7.40
2012,04,22,02,11,7.40
2012,04,22,02,12,7.30
2012,04,22,02,13,7.30
2012,04,22,02,14,7.30
2012,04,22,02,15,7.30
2012,04,22,02,16,7.40
2012,04,22,02,17,7.30
2012,04,22,02,18,7.30
2012,04,22,02,19,7.30
2012,04,22,02,20,7.30
2012,04,22,02,21,7.30
2012,04,22,02,22,7.30
2012,04,22,02,23,7.30
2012,04,22,02,24,7.30
2012,04,22,02,25,7.30
2012,04,22,02,26,7.30
2012,04,22,02,27,7.30
2012,04,22,02,28,7.30
2012,04,22,02,29,7.30
2012,04,22,02,30,7.30
2012,04,22,02,31,7.30
2012,04,22,02,32,7.30
2012,04,22,02,33,7.30
2012,04,22,02,34,7.30
2012,04,22,02,35,7.30
2012,04,22,02,36,7.30
2012,04,22,02,37,7.30
2012,04,22,02,38,7.30
2012,04,22,02,39,7.30
2012,04,22,02,40,7.30
2012,04,22,02,41,7.20
2012,04,22,02,42,7.20
2012,04,22,02,43,7.20
2012,04,22,02,44,7.20
2012,04,22,02,45,7.20
2012,04,22,02,46,7.20
2012,04,22,02,47,7.20
2012,04,22,02,48,7.20
2012,04,22,02,49,7.20
2012,04,22,02,50,7.20
2012,04,22,02,51,7.20
2012,04,22,02,52,7.20
2012,04,22,02,53,7.20
2012,04,22,02,54,7.20
2012,04,22,02,55,7.10
2012,04,22,02,56,7.10
2012,04,22,02,57,7.10
2012,04,22,02,58,7.10
2012,04,22,02,59,7.10
2012,04,22,03,00,7.10
2012,04,22,03,01,7.10
2012,04,22,03,02,7.10
2012,04,22,03,03,7.10
2012,04,22,03,04,7.10
2012,04,22,03,05,7.10
2012,04,22,03,06,7.10
2012,04,22,03,07,7.10
2012,04,22,03,08,7.00
2012,04,22,03,09,7.00
2012,04,22,03,10,7.00
2012,04,22,03,11,7.00
2012,04,22,03,12,7.00
2012,04,22,03,13,7.00
2012,04,22,03,14,7.00
2012,04,22,03,15,6.90
2012,04,22,03,16,6.90
2012,04,22,03,17,6.90
2012,04,22,03,18,6.90
2012,04,22,03,19,6.90
2012,04,22,03,20,6.90
2012,04,22,03,21,6.90
2012,04,22,03,22,6.90
2012,04,22,03,23,6.90
2012,04,22,03,24,6.90
2012,04,22,03,25,6.90
2012,04,22,03,26,6.90
2012,04,22,03,27,6.90
2012,04,22,03,28,6.90
2012,04,22,03,29,6.90
2012,04,22,03,30,6.90
2012,04,22,03,31,6.90
2012,04,22,03,32,6.90
2012,04,22,03,33,6.90
2012,04,22,03,34,6.90
2012,04,22,03,35,6.90
2012,04,22,03,36,6.90
2012,04,22,03,37,6.90
2012,04,22,03,38,6.90
2012,04,22,03,39,6.90
2012,04,22,03,40,6.90
2012,04,22,03,41,6.90
2012,04,22,03,42,6.90
2012,04,22,03,43,6.90
2012,04,22,03,44,6.90
2012,04,22,03,45,7.00
2012,04,22,03,46,7.00
2012,04,22,03,47,7.00
2012,04,22,03,48,7.00
2012,04,22,03,49,7.10
2012,04,22,03,50,7.10
2012,04,22,03,51,7.10
2012,04,22,03,52,7.10
2012,04,22,03,53,7.10
2012,04,22,03,54,7.10
2012,04,22,03,55,7.10
2012,04,22,03,56,7.10
2012,04,22,03,57,7.10
2012,04,22,03,58,7.10
2012,04,22,03,59,7.10
2012,04,22,04,00,7.10
2012,04,22,04,01,7.10
2012,04,22,04,02,7.10
2012,04,22,04,03,7.10
2012,04,22,04,04,7.10
2012,04,22,04,05,7.10
2012,04,22,04,06,7.10
2012,04,22,04,07,7.10
2012,04,22,04,08,7.10
2012,04,22,04,09,7.10
2012,04,22,04,10,7.10
2012,04,22,04,11,7.10
2012,04,22,04,12,7.10
2012,04,22,04,13,7.10
2012,04,22,04,14,7.10
2012,04,22,04,15,7.10
2012,04,22,04,16,7.10
2012,04,22,04,17,7.10
2012,04,22,04,18,7.10
2012,04,22,04,19,7.10
2012,04,22,04,20,7.10
2012,04,22,04,21,7.10
2012,04,22,04,22,7.10
2012,04,22,04,23,7.20
2012,04,22,04,24,7.20
2012,04,22,04,25,7.20
2012,04,22,04,26,7.20
2012,04,22,04,27,7.20
2012,04,22,04,28,7.20
2012,04,22,04,29,7.20
2012,04,22,04,30,7.20
2012,04,22,04,31,7.20
2012,04,22,04,32,7.20
2012,04,22,04,33,7.20
2012,04,22,04,34,7.20
2012,04,22,04,35,7.20
2012,04,22,04,36,7.20
2012,04,22,04,37,7.20
2012,04,22,04,38,7.20
2012,04,22,04,39,7.20
2012,04,22,04,40,7.20
2012,04,22,04,41,7.20
2012,04,22,04,42,7.20
2012,04,22,04,43,7.20
2012,04,22,04,44,7.20
2012,04,22,04,45,7.20
2012,04,22,04,46,7.20
2012,04,22,04,47,7.20
2012,04,22,04,48,7.20
2012,04,22,04,49,7.20
2012,04,22,04,50,7.20
2012,04,22,04,51,7.20
2012,04,22,04,52,7.20
2012,04,22,04,53,7.20
2012,04,22,04,54,7.20
2012,04,22,04,55,7.20
2012,04,22,04,56,7.20
2012,04,22,04,57,7.20
2012,04,22,04,58,7.20
2012,04,22,04,59,7.20
2012,04,22,05,00,7.20
2012,04,22,05,01,7.20
2012,04,22,05,02,7.30
2012,04,22,05,03,7.30
2012,04,22,05,04,7.30
2012,04,22,05,05,7.30
2012,04,22,05,06,7.30
2012,04,22,05,07,7.30
2012,04,22,05,08,7.30
2012,04,22,05,09,7.30
2012,04,22,05,10,7.30
2012,04,22,05,11,7.30
2012,04,22,05,12,7.30
2012,04,22,05,13,7.30
2012,04,22,05,14,7.30
2012,04,22,05,15,7.30
2012,04,22,05,16,7.40
2012,04,22,05,17,7.40
2012,04,22,05,18,7.40
2012,04,22,05,19,7.40
2012,04,22,05,20,7.40
2012,04,22,05,21,7.40
2012,04,22,05,22,7.40
2012,04,22,05,23,7.40
2012,04,22,05,24,7.40
2012,04,22,05,25,7.40
2012,04,22,05,26,7.40
2012,04,22,05,27,7.40
2012,04,22,05,28,7.40
2012,04,22,05,29,7.40
2012,04,22,05,30,7.40
2012,04,22,05,31,7.40
2012,04,22,05,32,7.40
2012,04,22,05,33,7.40
2012,04,22,05,34,7.40
2012,04,22,05,35,7.40
2012,04,22,05,36,7.40
2012,04,22,05,37,7.40
2012,04,22,05,38,7.40
2012,04,22,05,39,7.40
2012,04,22,05,40,7.30
2012,04,22,05,41,7.30
2012,04,22,05,42,7.30
2012,04,22,05,43,7.30
2012,04,22,05,44,7.30
2012,04,22,05,45,7.30
2012,04,22,05,46,7.30
2012,04,22,05,47,7.30
2012,04,22,05,48,7.30
2012,04,22,05,49,7.30
2012,04,22,05,50,7.30
2012,04,22,05,51,7.20
2012,04,22,05,52,7.20
2012,04,22,05,53,7.20
2012,04,22,05,54,7.20
2012,04,22,05,55,7.20
2012,04,22,05,56,7.20
2012,04,22,05,57,7.20
2012,04,22,05,58,7.20
2012,04,22,05,59,7.20
2012,04,22,06,00,7.20
2012,04,22,06,01,7.20
2012,04,22,06,02,7.20
2012,04,22,06,03,7.20
2012,04,22,06,04,7.20
2012,04,22,06,05,7.20
2012,04,22,06,06,7.20
2012,04,22,06,07,7.20
2012,04,22,06,08,7.20
2012,04,22,06,09,7.20
2012,04,22,06,10,7.20
2012,04,22,06,11,7.20
2012,04,22,06,12,7.20
2012,04,22,06,13,7.20
2012,04,22,06,14,7.20
2012,04,22,06,15,7.20
2012,04,22,06,16,7.20
2012,04,22,06,17,7.20
2012,04,22,06,18,7.20
2012,04,22,06,19,7.20
2012,04,22,06,20,7.20
2012,04,22,06,21,7.20
2012,04,22,06,22,7.20
2012,04,22,06,23,7.20
2012,04,22,06,24,7.20
2012,04,22,06,25,7.20
2012,04,22,06,26,7.20
2012,04,22,06,27,7.20
2012,04,22,06,28,7.20
2012,04,22,06,29,7.20
2012,04,22,06,30,7.20
2012,04,22,06,31,7.20
2012,04,22,06,32,7.20
2012,04,22,06,33,7.20
2012,04,22,06,34,7.20
2012,04,22,06,35,7.20
2012,04,22,06,36,7.20
2012,04,22,06,37,7.20
2012,04,22,06,38,7.20
2012,04,22,06,39,7.20
2012,04,22,06,40,7.20
2012,04,22,06,41,7.20
2012,04,22,06,42,7.20
2012,04,22,06,43,7.20
2012,04,22,06,44,7.20
2012,04,22,06,45,7.20
2012,04,22,06,46,7.20
2012,04,22,06,47,7.20
2012,04,22,06,48,7.20
2012,04,22,06,49,7.20
2012,04,22,06,50,7.20
2012,04,22,06,51,7.20
2012,04,22,06,52,7.20
2012,04,22,06,53,7.20
2012,04,22,06,54,7.20
2012,04,22,06,55,7.20
2012,04,22,06,56,7.20
2012,04,22,06,57,7.20
2012,04,22,06,58,7.20
2012,04,22,06,59,7.20
2012,04,22,07,00,7.20
2012,04,22,07,01,7.20
2012,04,22,07,02,7.20
2012,04,22,07,03,7.30
2012,04,22,07,04,7.30
2012,04,22,07,05,7.30
2012,04,22,07,06,7.30
2012,04,22,07,07,7.30
2012,04,22,07,08,7.30
2012,04,22,07,09,7.30
2012,04,22,07,10,7.30
2012,04,22,07,11,7.30
2012,04,22,07,12,7.30
2012,04,22,07,13,7.30
2012,04,22,07,14,7.40
2012,04,22,07,15,7.40
2012,04,22,07,16,7.40
2012,04,22,07,17,7.40
2012,04,22,07,18,7.50
2012,04,22,07,19,7.50
2012,04,22,07,20,7.50
2012,04,22,07,21,7.50
2012,04,22,07,22,7.60
2012,04,22,07,23,7.60
2012,04,22,07,24,7.60
2012,04,22,07,25,7.60
2012,04,22,07,26,7.60
2012,04,22,07,27,7.70
2012,04,22,07,28,7.70
2012,04,22,07,29,7.70
2012,04,22,07,30,7.70
2012,04,22,07,31,7.70
2012,04,22,07,32,7.70
2012,04,22,07,33,7.80
2012,04,22,07,34,7.80
2012,04,22,07,35,7.80
2012,04,22,07,36,7.80
2012,04,22,07,37,7.80
2012,04,22,07,38,7.80
2012,04,22,07,39,7.90
2012,04,22,07,40,7.90
2012,04,22,07,41,7.90
2012,04,22,07,42,7.90
2012,04,22,07,43,8.00
2012,04,22,07,44,8.00
2012,04,22,07,45,8.00
2012,04,22,07,46,8.10
2012,04,22,07,47,8.10
2012,04,22,07,48,8.10
2012,04,22,07,49,8.10
2012,04,22,07,50,8.20
2012,04,22,07,51,8.20
2012,04,22,07,52,8.20
2012,04,22,07,53,8.20
2012,04,22,07,54,8.20
2012,04,22,07,55,8.20
2012,04,22,07,56,8.20
2012,04,22,07,57,8.30
2012,04,22,07,58,8.30
2012,04,22,07,59,8.30
2012,04,22,08,00,8.30
2012,04,22,08,01,8.40
2012,04,22,08,02,8.40
2012,04,22,08,03,8.40
2012,04,22,08,04,8.40
2012,04,22,08,05,8.50
2012,04,22,08,06,8.50
2012,04,22,08,07,8.60
2012,04,22,08,08,8.60
2012,04,22,08,09,8.60
2012,04,22,08,10,8.60
2012,04,22,08,11,8.70
2012,04,22,08,12,8.70
2012,04,22,08,13,8.70
2012,04,22,08,14,8.70
2012,04,22,08,15,8.80
2012,04,22,08,16,8.80
2012,04,22,08,17,8.80
2012,04,22,08,18,8.80
2012,04,22,08,19,8.90
2012,04,22,08,20,8.90
2012,04,22,08,21,8.90
2012,04,22,08,22,9.00
2012,04,22,08,23,9.00
2012,04,22,08,24,9.10
2012,04,22,08,25,9.10
2012,04,22,08,26,9.10
2012,04,22,08,27,9.10
2012,04,22,08,28,9.10
2012,04,22,08,29,9.10
2012,04,22,08,30,9.10
2012,04,22,08,31,9.10
2012,04,22,08,32,9.10
2012,04,22,08,33,9.10
2012,04,22,08,34,9.10
2012,04,22,08,35,9.10
2012,04,22,08,36,9.10
2012,04,22,08,37,9.10
2012,04,22,08,38,9.10
2012,04,22,08,39,9.10
2012,04,22,08,40,9.10
2012,04,22,08,41,9.20
2012,04,22,08,42,9.20
2012,04,22,08,43,9.20
2012,04,22,08,44,9.20
2012,04,22,08,45,9.30
2012,04,22,08,46,9.30
2012,04,22,08,47,9.40
2012,04,22,08,48,9.40
2012,04,22,08,49,9.50
2012,04,22,08,50,9.50
2012,04,22,08,51,9.60
2012,04,22,08,52,9.60
2012,04,22,08,53,9.70
2012,04,22,08,54,9.70
2012,04,22,08,55,9.80
2012,04,22,08,56,9.80
2012,04,22,08,57,9.90
2012,04,22,08,58,9.90
2012,04,22,08,59,10.00
2012,04,22,09,00,10.10
2012,04,22,09,01,10.10
2012,04,22,09,02,10.20
2012,04,22,09,03,10.20
2012,04,22,09,04,10.30
2012,04,22,09,05,10.30
2012,04,22,09,06,10.30
2012,04,22,09,07,10.30
2012,04,22,09,08,10.30
2012,04,22,09,09,10.30
2012,04,22,09,10,10.30
2012,04,22,09,11,10.30
2012,04,22,09,12,10.30
2012,04,22,09,13,10.40
2012,04,22,09,14,10.40
2012,04,22,09,15,10.40
2012,04,22,09,16,10.40
2012,04,22,09,17,10.50
2012,04,22,09,18,10.60
2012,04,22,09,19,10.60
2012,04,22,09,20,10.70
2012,04,22,09,21,10.70
2012,04,22,09,22,10.80
2012,04,22,09,23,10.80
2012,04,22,09,24,10.80
2012,04,22,09,25,10.90
2012,04,22,09,26,10.90
2012,04,22,09,27,11.00
2012,04,22,09,28,11.00
2012,04,22,09,29,11.10
2012,04,22,09,30,11.20
2012,04,22,09,31,11.20
2012,04,22,09,32,11.30
2012,04,22,09,33,11.30
2012,04,22,09,34,11.30
2012,04,22,09,35,11.40
2012,04,22,09,36,11.30
2012,04,22,09,37,11.30
2012,04,22,09,38,11.30
2012,04,22,09,39,11.30
2012,04,22,09,40,11.30
2012,04,22,09,41,11.30
2012,04,22,09,42,11.20
2012,04,22,09,43,11.30
2012,04,22,09,44,11.30
2012,04,22,09,45,11.30
2012,04,22,09,46,11.30
2012,04,22,09,47,11.40
2012,04,22,09,48,11.50
2012,04,22,09,49,11.50
2012,04,22,09,50,11.60
2012,04,22,09,51,11.70
2012,04,22,09,52,11.80
2012,04,22,09,53,11.90
2012,04,22,09,54,12.00
2012,04,22,09,55,12.00
2012,04,22,09,56,12.10
2012,04,22,09,57,12.20
2012,04,22,09,58,12.20
2012,04,22,09,59,12.20
2012,04,22,10,00,12.30
2012,04,22,10,01,12.30
2012,04,22,10,02,12.40
2012,04,22,10,03,12.40
2012,04,22,10,04,12.50
2012,04,22,10,05,12.60
2012,04,22,10,06,12.70
2012,04,22,10,07,12.80
2012,04,22,10,08,13.00
2012,04,22,10,09,13.10
2012,04,22,10,10,13.20
2012,04,22,10,11,13.30
2012,04,22,10,12,13.40
2012,04,22,10,13,13.50
2012,04,22,10,14,13.60
2012,04,22,10,15,13.70
2012,04,22,10,16,13.70
2012,04,22,10,17,13.80
2012,04,22,10,18,13.90
2012,04,22,10,19,13.90
2012,04,22,10,20,14.00
2012,04,22,10,21,14.00
2012,04,22,10,22,14.10
2012,04,22,10,23,14.20
2012,04,22,10,24,14.30
2012,04,22,10,25,14.40
2012,04,22,10,26,14.50
2012,04,22,10,27,14.50
2012,04,22,10,28,14.60
2012,04,22,10,29,14.70
2012,04,22,10,30,14.70
2012,04,22,10,31,14.70
2012,04,22,10,32,14.70
2012,04,22,10,33,14.70
2012,04,22,10,34,14.70
2012,04,22,10,35,14.70
2012,04,22,10,36,14.80
2012,04,22,10,37,14.80
2012,04,22,10,38,15.00
2012,04,22,10,39,15.00
2012,04,22,10,40,15.10
2012,04,22,10,41,15.20
2012,04,22,10,42,15.10
2012,04,22,10,43,15.10
2012,04,22,10,44,15.10
2012,04,22,10,45,15.00
2012,04,22,10,46,15.00
2012,04,22,10,47,15.00
2012,04,22,10,48,15.00
2012,04,22,10,49,15.00
2012,04,22,10,50,15.00
2012,04,22,10,51,15.00
2012,04,22,10,52,15.00
2012,04,22,10,53,15.10
2012,04,22,10,54,15.20
2012,04,22,10,55,15.30
2012,04,22,10,56,15.40
2012,04,22,10,57,15.50
2012,04,22,10,58,15.50
2012,04,22,10,59,15.50
2012,04,22,11,00,15.50
2012,04,22,11,01,15.50
2012,04,22,11,02,15.60
2012,04,22,11,03,15.70
2012,04,22,11,04,15.70
2012,04,22,11,05,15.70
2012,04,22,11,06,15.80
2012,04,22,11,07,15.80
2012,04,22,11,08,15.90
2012,04,22,11,09,16.00
2012,04,22,11,10,16.20
2012,04,22,11,11,16.40
2012,04,22,11,12,16.50
2012,04,22,11,13,16.70
2012,04,22,11,14,16.80
2012,04,22,11,15,16.80
2012,04,22,11,16,16.80
2012,04,22,11,17,16.80
2012,04,22,11,18,16.80
2012,04,22,11,19,16.80
2012,04,22,11,20,16.80
2012,04,22,11,21,16.70
2012,04,22,11,22,16.70
2012,04,22,11,23,16.70
2012,04,22,11,24,16.70
2012,04,22,11,25,16.70
2012,04,22,11,26,16.70
2012,04,22,11,27,16.80
2012,04,22,11,28,16.80
2012,04,22,11,29,16.90
2012,04,22,11,30,16.90
2012,04,22,11,31,17.00
2012,04,22,11,32,17.10
2012,04,22,11,33,17.10
2012,04,22,11,34,17.20
2012,04,22,11,35,17.20
2012,04,22,11,36,17.20
2012,04,22,11,37,17.20
2012,04,22,11,38,17.30
2012,04,22,11,39,17.40
2012,04,22,11,40,17.50
2012,04,22,11,41,17.60
2012,04,22,11,42,17.70
2012,04,22,11,43,17.70
2012,04,22,11,44,17.80
2012,04,22,11,45,17.80
2012,04,22,11,46,17.90
2012,04,22,11,47,17.90
2012,04,22,11,48,17.90
2012,04,22,11,49,18.00
2012,04,22,11,50,18.00
2012,04,22,11,51,18.10
2012,04,22,11,52,18.10
2012,04,22,11,53,18.10
2012,04,22,11,54,18.10
2012,04,22,11,55,18.20
2012,04,22,11,56,18.20
2012,04,22,11,57,18.10
2012,04,22,11,58,18.10
2012,04,22,11,59,18.10
2012,04,22,12,00,18.10
2012,04,22,12,01,18.10
2012,04,22,12,02,18.10
2012,04,22,12,03,18.10
2012,04,22,12,04,18.10
2012,04,22,12,05,18.10
2012,04,22,12,06,18.00
2012,04,22,12,07,18.00
2012,04,22,12,08,17.90
2012,04,22,12,09,17.90
2012,04,22,12,10,17.90
2012,04,22,12,11,18.00
2012,04,22,12,12,18.10
2012,04,22,12,13,18.10
2012,04,22,12,14,18.20
2012,04,22,12,15,18.30
2012,04,22,12,16,18.50
2012,04,22,12,17,18.60
2012,04,22,12,18,18.60
2012,04,22,12,19,18.60
2012,04,22,12,20,18.60
2012,04,22,12,21,18.60
2012,04,22,12,22,18.60
2012,04,22,12,23,18.60
2012,04,22,12,24,18.60
2012,04,22,12,25,18.60
2012,04,22,12,26,18.70
2012,04,22,12,27,18.70
2012,04,22,12,28,18.70
2012,04,22,12,29,18.60
2012,04,22,12,30,18.60
2012,04,22,12,31,18.60
2012,04,22,12,32,18.60
2012,04,22,12,33,18.60
2012,04,22,12,34,18.60
2012,04,22,12,35,18.60
2012,04,22,12,36,18.60
2012,04,22,12,37,18.60
2012,04,22,12,38,18.60
2012,04,22,12,39,18.70
2012,04,22,12,40,18.70
2012,04,22,12,41,18.70
2012,04,22,12,42,18.70
2012,04,22,12,43,18.70
2012,04,22,12,44,18.80
2012,04,22,12,45,18.80
2012,04,22,12,46,18.80
2012,04,22,12,47,18.80
2012,04,22,12,48,18.90
2012,04,22,12,49,19.10
2012,04,22,12,50,19.20
2012,04,22,12,51,19.40
2012,04,22,12,52,19.50
2012,04,22,12,53,19.70
2012,04,22,12,54,19.80
2012,04,22,12,55,19.90
2012,04,22,12,56,20.00
2012,04,22,12,57,20.00
2012,04,22,12,58,20.10
2012,04,22,12,59,20.10
2012,04,22,13,00,20.20
2012,04,22,13,01,20.30
2012,04,22,13,02,20.20
2012,04,22,13,03,20.10
2012,04,22,13,04,20.00
2012,04,22,13,05,20.00
2012,04,22,13,06,20.00
2012,04,22,13,07,20.10
2012,04,22,13,08,20.10
2012,04,22,13,09,20.10
2012,04,22,13,10,20.20
2012,04,22,13,11,20.20
2012,04,22,13,12,20.20
2012,04,22,13,13,20.30
2012,04,22,13,14,20.30
2012,04,22,13,15,20.30
2012,04,22,13,16,20.30
2012,04,22,13,17,20.20
2012,04,22,13,18,20.20
2012,04,22,13,19,20.20
2012,04,22,13,20,20.20
2012,04,22,13,21,20.10
2012,04,22,13,22,20.10
2012,04,22,13,23,20.10
2012,04,22,13,24,20.10
2012,04,22,13,25,20.20
2012,04,22,13,26,20.30
2012,04,22,13,27,20.40
2012,04,22,13,28,20.40
2012,04,22,13,29,20.40
2012,04,22,13,30,20.40
2012,04,22,13,31,20.50
2012,04,22,13,32,20.40
2012,04,22,13,33,20.40
2012,04,22,13,34,20.40
2012,04,22,13,35,20.40
2012,04,22,13,36,20.30
2012,04,22,13,37,20.20
2012,04,22,13,38,20.20
2012,04,22,13,39,20.20
2012,04,22,13,40,20.20
2012,04,22,13,41,20.30
2012,04,22,13,42,20.30
2012,04,22,13,43,20.30
2012,04,22,13,44,20.30
2012,04,22,13,45,20.30
2012,04,22,13,46,20.40
2012,04,22,13,47,20.40
2012,04,22,13,48,20.40
2012,04,22,13,49,20.50
2012,04,22,13,50,20.60
2012,04,22,13,51,20.60
2012,04,22,13,52,20.60
2012,04,22,13,53,20.60
2012,04,22,13,54,20.60
2012,04,22,13,55,20.70
2012,04,22,13,56,20.80
2012,04,22,13,57,20.90
2012,04,22,13,58,20.90
2012,04,22,13,59,21.00
2012,04,22,14,00,21.10
2012,04,22,14,01,21.10
2012,04,22,14,02,21.10
2012,04,22,14,03,21.10
2012,04,22,14,04,21.00
2012,04,22,14,05,20.90
2012,04,22,14,06,20.80
2012,04,22,14,07,20.70
2012,04,22,14,08,20.60
2012,04,22,14,09,20.50
2012,04,22,14,10,20.40
2012,04,22,14,11,20.40
2012,04,22,14,12,20.40
2012,04,22,14,13,20.40
2012,04,22,14,14,20.40
2012,04,22,14,15,20.50
2012,04,22,14,16,20.50
2012,04,22,14,17,20.40
2012,04,22,14,18,20.40
2012,04,22,14,19,20.30
2012,04,22,14,20,20.30
2012,04,22,14,21,20.30
2012,04,22,14,22,20.40
2012,04,22,14,23,20.40
2012,04,22,14,24,20.50
2012,04,22,14,25,20.60
2012,04,22,14,26,20.70
2012,04,22,14,27,20.70
2012,04,22,14,28,20.80
2012,04,22,14,29,20.80
2012,04,22,14,30,20.90
2012,04,22,14,31,20.90
2012,04,22,14,32,20.90
2012,04,22,14,33,20.80
2012,04,22,14,34,20.90
2012,04,22,14,35,20.90
2012,04,22,14,36,20.90
2012,04,22,14,37,20.90
2012,04,22,14,38,20.90
2012,04,22,14,39,20.80
2012,04,22,14,40,20.80
2012,04,22,14,41,20.80
2012,04,22,14,42,20.90
2012,04,22,14,43,21.00
2012,04,22,14,44,21.00
2012,04,22,14,45,21.00
2012,04,22,14,46,21.00
2012,04,22,14,47,21.00
2012,04,22,14,48,21.00
2012,04,22,14,49,21.00
2012,04,22,14,50,20.90
2012,04,22,14,51,20.80
2012,04,22,14,52,20.70
2012,04,22,14,53,20.60
2012,04,22,14,54,20.50
2012,04,22,14,55,20.40
2012,04,22,14,56,20.40
2012,04,22,14,57,20.40
2012,04,22,14,58,20.40
2012,04,22,14,59,20.40
2012,04,22,15,00,20.50
2012,04,22,15,01,20.50
2012,04,22,15,02,20.50
2012,04,22,15,03,20.40
2012,04,22,15,04,20.40
2012,04,22,15,05,20.40
2012,04,22,15,06,20.40
2012,04,22,15,07,20.40
2012,04,22,15,08,20.40
2012,04,22,15,09,20.50
2012,04,22,15,10,20.60
2012,04,22,15,11,20.70
2012,04,22,15,12,20.70
2012,04,22,15,13,20.80
2012,04,22,15,14,20.70
2012,04,22,15,15,20.60
2012,04,22,15,16,20.50
2012,04,22,15,17,20.40
2012,04,22,15,18,20.40
2012,04,22,15,19,20.40
2012,04,22,15,20,20.50
2012,04,22,15,21,20.50
2012,04,22,15,22,20.60
2012,04,22,15,23,20.70
2012,04,22,15,24,20.80
2012,04,22,15,25,20.90
2012,04,22,15,26,20.90
2012,04,22,15,27,20.90
2012,04,22,15,28,21.00
2012,04,22,15,29,21.00
2012,04,22,15,30,20.90
2012,04,22,15,31,20.70
2012,04,22,15,32,20.60
2012,04,22,15,33,20.50
2012,04,22,15,34,20.40
2012,04,22,15,35,20.40
2012,04,22,15,36,20.30
2012,04,22,15,37,20.30
2012,04,22,15,38,20.30
2012,04,22,15,39,20.20
2012,04,22,15,40,20.10
2012,04,22,15,41,20.00
2012,04,22,15,42,20.00
2012,04,22,15,43,19.90
2012,04,22,15,44,19.80
2012,04,22,15,45,19.80
2012,04,22,15,46,19.80
2012,04,22,15,47,19.80
2012,04,22,15,48,19.80
2012,04,22,15,49,19.70
2012,04,22,15,50,19.80
2012,04,22,15,51,19.70
2012,04,22,15,52,19.70
2012,04,22,15,53,19.70
2012,04,22,15,54,19.70
2012,04,22,15,55,19.70
2012,04,22,15,56,19.70
2012,04,22,15,57,19.70
2012,04,22,15,58,19.80
2012,04,22,15,59,19.90
2012,04,22,16,00,19.90
2012,04,22,16,01,20.00
2012,04,22,16,02,20.00
2012,04,22,16,03,20.00
2012,04,22,16,04,20.00
2012,04,22,16,05,20.00
2012,04,22,16,06,20.10
2012,04,22,16,07,20.10
2012,04,22,16,08,20.10
2012,04,22,16,09,20.10
2012,04,22,16,10,20.20
2012,04,22,16,11,20.30
2012,04,22,16,12,20.30
2012,04,22,16,13,20.30
2012,04,22,16,14,20.40
2012,04,22,16,15,20.40
2012,04,22,16,16,20.40
2012,04,22,16,17,20.40
2012,04,22,16,18,20.50
2012,04,22,16,19,20.50
2012,04,22,16,20,20.50
2012,04,22,16,21,20.50
2012,04,22,16,22,20.50
2012,04,22,16,23,20.50
2012,04,22,16,24,20.50
2012,04,22,16,25,20.40
2012,04,22,16,26,20.50
2012,04,22,16,27,20.50
2012,04,22,16,28,20.60
2012,04,22,16,29,20.60
2012,04,22,16,30,20.60
2012,04,22,16,31,20.60
2012,04,22,16,32,20.60
2012,04,22,16,33,20.60
2012,04,22,16,34,20.60
2012,04,22,16,35,20.60
2012,04,22,16,36,20.60
2012,04,22,16,37,20.60
2012,04,22,16,38,20.60
2012,04,22,16,39,20.60
2012,04,22,16,40,20.60
2012,04,22,16,41,20.50
2012,04,22,16,42,20.50
2012,04,22,16,43,20.40
2012,04,22,16,44,20.40
2012,04,22,16,45,20.40
2012,04,22,16,46,20.40
2012,04,22,16,47,20.40
2012,04,22,16,48,20.30
2012,04,22,16,49,20.30
2012,04,22,16,50,20.30
2012,04,22,16,51,20.30
2012,04,22,16,52,20.20
2012,04,22,16,53,20.30
2012,04,22,16,54,20.30
2012,04,22,16,55,20.40
2012,04,22,16,56,20.40
2012,04,22,16,57,20.40
2012,04,22,16,58,20.50
2012,04,22,16,59,20.50
2012,04,22,17,00,20.60
2012,04,22,17,01,20.60
2012,04,22,17,02,20.60
2012,04,22,17,03,20.60
2012,04,22,17,04,20.60
2012,04,22,17,05,20.60
2012,04,22,17,06,20.60
2012,04,22,17,07,20.50
2012,04,22,17,08,20.60
2012,04,22,17,09,20.60
2012,04,22,17,10,20.70
2012,04,22,17,11,20.70
2012,04,22,17,12,20.80
2012,04,22,17,13,20.80
2012,04,22,17,14,20.80
2012,04,22,17,15,20.90
2012,04,22,17,16,20.90
2012,04,22,17,17,20.90
2012,04,22,17,18,20.90
2012,04,22,17,19,20.80
2012,04,22,17,20,20.80
2012,04,22,17,21,20.80
2012,04,22,17,22,20.80
2012,04,22,17,23,20.80
2012,04,22,17,24,20.80
2012,04,22,17,25,20.80
2012,04,22,17,26,20.80
2012,04,22,17,27,20.80
2012,04,22,17,28,20.80
2012,04,22,17,29,20.90
2012,04,22,17,30,20.90
2012,04,22,17,31,20.90
2012,04,22,17,32,20.80
2012,04,22,17,33,20.80
2012,04,22,17,34,20.70
2012,04,22,17,35,20.70
2012,04,22,17,36,20.60
2012,04,22,17,37,20.60
2012,04,22,17,38,20.60
2012,04,22,17,39,20.50
2012,04,22,17,40,20.40
2012,04,22,17,41,20.40
2012,04,22,17,42,20.40